STARLINK-32345 (60920 NORAD) Tracking and Keplerian Element Data

This shows tracking and keplerian element data for the satellite.

Feedback or suggestion? Click here.




ElementValue
Catalog60920
NameSTARLINK-32345
Epoch Orbit781
Epoch Day286.79084559
Epoch Year2024
RAAN146.4967
Inclination53.1612
Eccentricity0.0001221
Argument of Perigee95.8346
Mean Anonmoly264.2794
Mean Motion15.30179597
Decay Rate-2.821E-05
L11 60920U 24154T 24286.79084559 -.00002821 00000+0 -83203-4 0 9996
L22 60920 53.1612 146.4967 0001221 95.8346 264.2794 15.30179597 7812



Live tracking and technical data element details for STARLINK-32345 (NORAD 60920). STARLINK-32345 can be tracked NOW for your location showing map with azimuth and elevation plus other details from your city location.







IsCatalogInMostPopularTable: catalog: 60920, numindb: 9
Update: records affected: 1



GetName: 60920 STARLINK-32345

Hit Count: updated at: Wed, 04 Dec 2024 18:48:30 GMT